Time,TemperatureF,DewpointF,PressureIn,WindDirection,WindDirectionDegrees,WindSpeedMPH,WindSpeedGustMPH,Humidity,HourlyPrecipIn,Conditions,Clouds,dailyrainin,SoftwareType,DateUTC
2013-09-15 00:00:00,74.3,71.8,29.96,North,360,0.0,4.0,92,0.00,,---,0.00,VWS V14.01,2013-09-15 04:00:00,
2013-09-15 00:01:00,74.3,71.8,29.96,North,360,0.0,0.0,92,0.00,,---,0.00,VWS V14.01,2013-09-15 04:01:00,
2013-09-15 00:06:00,74.2,71.7,29.96,North,360,0.0,0.0,92,0.00,,---,0.00,VWS V14.01,2013-09-15 04:06:00,
2013-09-15 00:10:00,74.1,71.6,29.97,North,360,3.0,4.0,92,0.00,,---,0.00,VWS V14.01,2013-09-15 04:10:00,
2013-09-15 00:11:00,74.1,71.6,29.97,North,360,3.0,4.0,92,0.00,,---,0.00,VWS V14.01,2013-09-15 04:11:00,
2013-09-15 00:16:00,74.1,71.6,29.97,North,360,5.0,6.0,92,0.00,,---,0.00,VWS V14.01,2013-09-15 04:16:00,
2013-09-15 00:20:00,74.1,71.6,29.97,North,360,2.0,6.0,92,0.00,,---,0.00,VWS V14.01,2013-09-15 04:20:00,
2013-09-15 00:21:00,74.2,71.7,29.97,North,360,0.0,2.0,92,0.00,,---,0.00,VWS V14.01,2013-09-15 04:21:00,
2013-09-15 00:26:00,74.3,72.2,29.97,North,360,0.0,2.0,93,0.00,,---,0.00,VWS V14.01,2013-09-15 04:26:00,
2013-09-15 00:30:00,74.3,72.2,29.97,North,360,0.0,2.0,93,0.00,,---,0.00,VWS V14.01,2013-09-15 04:30:00,
2013-09-15 00:31:00,74.3,72.2,29.97,North,360,0.0,0.0,93,0.00,,---,0.00,VWS V14.01,2013-09-15 04:31:00,
2013-09-15 00:36:00,74.4,72.2,29.97,North,360,1.0,2.0,93,0.00,,---,0.00,VWS V14.01,2013-09-15 04:36:00,
2013-09-15 00:40:00,74.6,72.1,29.97,North,360,0.0,2.0,92,0.00,,---,0.00,VWS V14.01,2013-09-15 04:40:00,
2013-09-15 00:41:00,74.6,72.1,29.97,North,360,1.0,1.0,92,0.00,,---,0.00,VWS V14.01,2013-09-15 04:41:00,
2013-09-15 00:46:00,74.8,72.3,29.96,North,360,0.0,3.0,92,0.00,,---,0.00,VWS V14.01,2013-09-15 04:46:00,
2013-09-15 00:50:00,74.8,72.3,29.96,North,360,0.0,3.0,92,0.00,,---,0.00,VWS V14.01,2013-09-15 04:50:00,
2013-09-15 00:51:00,74.9,72.4,29.96,North,360,0.0,0.0,92,0.00,,---,0.00,VWS V14.01,2013-09-15 04:51:00,
2013-09-15 00:56:00,74.9,72.4,29.97,North,360,0.0,0.0,92,0.00,,---,0.00,VWS V14.01,2013-09-15 04:56:00,
2013-09-15 01:00:00,74.9,72.4,29.97,North,360,0.0,0.0,92,0.00,,---,0.00,VWS V14.01,2013-09-15 05:00:00,
2013-09-15 01:01:00,74.8,72.3,29.97,North,360,0.0,0.0,92,0.00,,---,0.00,VWS V14.01,2013-09-15 05:01:00,
2013-09-15 01:06:00,74.8,72.0,29.97,North,360,0.0,0.0,91,0.00,,---,0.00,VWS V14.01,2013-09-15 05:06:00,
2013-09-15 01:10:00,74.7,72.2,29.97,North,360,0.0,0.0,92,0.00,,---,0.00,VWS V14.01,2013-09-15 05:10:00,
2013-09-15 01:11:00,74.7,72.2,29.97,North,360,0.0,0.0,92,0.00,,---,0.00,VWS V14.01,2013-09-15 05:11:00,
2013-09-15 01:16:00,74.6,72.1,29.97,North,360,0.0,0.0,92,0.00,,---,0.00,VWS V14.01,2013-09-15 05:16:00,
2013-09-15 01:20:00,74.5,72.0,29.97,North,360,0.0,0.0,92,0.00,,---,0.00,VWS V14.01,2013-09-15 05:20:00,
2013-09-15 01:21:00,74.5,72.0,29.97,North,360,0.0,0.0,92,0.00,,---,0.00,VWS V14.01,2013-09-15 05:21:00,
2013-09-15 01:26:00,74.4,71.9,29.98,North,360,0.0,0.0,92,0.00,,---,0.00,VWS V14.01,2013-09-15 05:26:00,
2013-09-15 01:30:00,74.4,71.9,29.98,North,360,0.0,0.0,92,0.00,,---,0.00,VWS V14.01,2013-09-15 05:30:00,
2013-09-15 01:31:00,74.3,71.8,29.98,North,360,0.0,0.0,92,0.00,,---,0.00,VWS V14.01,2013-09-15 05:31:00,
2013-09-15 01:36:00,74.2,71.7,29.97,North,360,0.0,0.0,92,0.00,,---,0.00,VWS V14.01,2013-09-15 05:36:00,
2013-09-15 01:40:00,74.1,71.6,29.98,North,360,0.0,0.0,92,0.00,,---,0.00,VWS V14.01,2013-09-15 05:40:00,
2013-09-15 01:41:00,74.1,71.6,29.98,North,360,0.0,0.0,92,0.00,,---,0.00,VWS V14.01,2013-09-15 05:41:00,
2013-09-15 01:46:00,73.9,71.4,29.97,North,360,0.0,0.0,92,0.00,,---,0.00,VWS V14.01,2013-09-15 05:46:00,
2013-09-15 01:50:00,73.9,71.4,29.97,North,360,0.0,0.0,92,0.00,,---,0.00,VWS V14.01,2013-09-15 05:50:00,
2013-09-15 01:51:00,73.9,71.4,29.97,North,360,0.0,0.0,92,0.00,,---,0.00,VWS V14.01,2013-09-15 05:51:00,
2013-09-15 01:56:00,73.9,71.8,29.97,North,360,0.0,2.0,93,0.00,,---,0.00,VWS V14.01,2013-09-15 05:56:00,
2013-09-15 02:00:00,74.0,71.8,29.97,North,360,0.0,2.0,93,0.00,,---,0.00,VWS V14.01,2013-09-15 06:00:00,
2013-09-15 02:01:00,74.0,71.8,29.97,North,360,0.0,0.0,93,0.00,,---,0.00,VWS V14.01,2013-09-15 06:01:00,
2013-09-15 02:06:00,74.1,71.9,29.97,North,360,0.0,0.0,93,0.00,,---,0.00,VWS V14.01,2013-09-15 06:06:00,
2013-09-15 02:10:00,74.3,72.2,29.97,North,360,0.0,0.0,93,0.00,,---,0.00,VWS V14.01,2013-09-15 06:10:00,
2013-09-15 02:11:00,74.3,72.2,29.97,North,360,0.0,0.0,93,0.00,,---,0.00,VWS V14.01,2013-09-15 06:11:00,
2013-09-15 02:16:00,74.4,72.2,29.97,North,360,0.0,0.0,93,0.00,,---,0.00,VWS V14.01,2013-09-15 06:16:00,
2013-09-15 02:20:00,74.5,72.3,29.96,North,360,0.0,0.0,93,0.00,,---,0.00,VWS V14.01,2013-09-15 06:20:00,
2013-09-15 02:21:00,74.5,72.3,29.96,North,360,0.0,0.0,93,0.00,,---,0.00,VWS V14.01,2013-09-15 06:21:00,
2013-09-15 02:26:00,74.5,72.3,29.96,North,360,0.0,0.0,93,0.00,,---,0.00,VWS V14.01,2013-09-15 06:26:00,
2013-09-15 02:30:00,74.5,72.3,29.96,North,360,0.0,0.0,93,0.00,,---,0.00,VWS V14.01,2013-09-15 06:30:00,
2013-09-15 02:31:00,74.5,72.3,29.96,North,360,0.0,0.0,93,0.00,,---,0.00,VWS V14.01,2013-09-15 06:31:00,
2013-09-15 02:36:00,74.4,72.2,29.96,North,360,0.0,0.0,93,0.00,,---,0.00,VWS V14.01,2013-09-15 06:36:00,
2013-09-15 02:40:00,74.5,72.3,29.96,North,360,0.0,0.0,93,0.00,,---,0.00,VWS V14.01,2013-09-15 06:40:00,
2013-09-15 02:41:00,74.5,72.3,29.96,North,360,0.0,0.0,93,0.00,,---,0.00,VWS V14.01,2013-09-15 06:41:00,
2013-09-15 02:46:00,74.5,72.3,29.96,North,360,0.0,0.0,93,0.00,,---,0.00,VWS V14.01,2013-09-15 06:46:00,
2013-09-15 02:50:00,74.5,72.3,29.96,North,360,2.0,3.0,93,0.00,,---,0.00,VWS V14.01,2013-09-15 06:50:00,
2013-09-15 02:51:00,74.4,72.2,29.96,North,360,2.0,3.0,93,0.00,,---,0.00,VWS V14.01,2013-09-15 06:51:00,
2013-09-15 02:56:00,74.4,72.6,29.96,North,360,5.0,5.0,94,0.00,,---,0.00,VWS V14.01,2013-09-15 06:56:00,
2013-09-15 03:00:00,74.6,72.8,29.96,North,360,2.0,5.0,94,0.00,,---,0.00,VWS V14.01,2013-09-15 07:00:00,
2013-09-15 03:01:00,74.6,72.8,29.96,North,360,3.0,3.0,94,0.00,,---,0.00,VWS V14.01,2013-09-15 07:01:00,
2013-09-15 03:06:00,74.9,73.1,29.96,North,360,2.0,4.0,94,0.00,,---,0.00,VWS V14.01,2013-09-15 07:06:00,
2013-09-15 03:10:00,75.0,73.2,29.96,North,360,0.0,4.0,94,0.00,,---,0.00,VWS V14.01,2013-09-15 07:10:00,
2013-09-15 03:11:00,75.0,73.2,29.96,North,360,0.0,1.0,94,0.00,,---,0.00,VWS V14.01,2013-09-15 07:11:00,
2013-09-15 03:16:00,75.2,73.4,29.96,North,360,1.0,2.0,94,0.00,,---,0.00,VWS V14.01,2013-09-15 07:16:00,
2013-09-15 03:20:00,75.2,73.0,29.96,North,360,0.0,2.0,93,0.00,,---,0.00,VWS V14.01,2013-09-15 07:20:00,
2013-09-15 03:21:00,75.1,72.9,29.96,North,360,0.0,0.0,93,0.00,,---,0.00,VWS V14.01,2013-09-15 07:21:00,
2013-09-15 03:26:00,75.2,73.0,29.96,North,360,0.0,0.0,93,0.00,,---,0.00,VWS V14.01,2013-09-15 07:26:00,
2013-09-15 03:30:00,75.2,73.0,29.96,North,360,1.0,2.0,93,0.00,,---,0.00,VWS V14.01,2013-09-15 07:30:00,
2013-09-15 03:31:00,75.2,73.0,29.96,North,360,0.0,1.0,93,0.00,,---,0.00,VWS V14.01,2013-09-15 07:31:00,
2013-09-15 03:36:00,75.2,73.0,29.96,North,360,3.0,4.0,93,0.00,,---,0.00,VWS V14.01,2013-09-15 07:36:00,
2013-09-15 03:40:00,75.2,73.0,29.96,North,360,0.0,4.0,93,0.00,,---,0.00,VWS V14.01,2013-09-15 07:40:00,
2013-09-15 03:41:00,75.1,72.9,29.96,North,360,0.0,0.0,93,0.00,,---,0.00,VWS V14.01,2013-09-15 07:41:00,
2013-09-15 03:46:00,75.1,72.9,29.96,North,360,0.0,3.0,93,0.00,,---,0.00,VWS V14.01,2013-09-15 07:46:00,
2013-09-15 03:50:00,75.1,72.9,29.96,North,360,0.0,3.0,93,0.00,,---,0.00,VWS V14.01,2013-09-15 07:50:00,
2013-09-15 03:51:00,75.1,72.9,29.96,North,360,0.0,0.0,93,0.00,,---,0.00,VWS V14.01,2013-09-15 07:51:00,
2013-09-15 03:56:00,75.2,73.4,29.96,North,360,1.0,3.0,94,0.00,,---,0.00,VWS V14.01,2013-09-15 07:56:00,
2013-09-15 04:00:00,75.3,73.5,29.96,North,360,0.0,3.0,94,0.00,,---,0.00,VWS V14.01,2013-09-15 08:00:00,
2013-09-15 04:01:00,75.4,73.6,29.96,North,360,2.0,3.0,94,0.00,,---,0.00,VWS V14.01,2013-09-15 08:01:00,
2013-09-15 04:06:00,75.5,73.3,29.96,North,360,1.0,3.0,93,0.00,,---,0.00,VWS V14.01,2013-09-15 08:06:00,
2013-09-15 04:10:00,75.5,73.3,29.96,North,360,2.0,3.0,93,0.00,,---,0.00,VWS V14.01,2013-09-15 08:10:00,
2013-09-15 04:11:00,75.5,73.3,29.96,North,360,0.0,2.0,93,0.00,,---,0.00,VWS V14.01,2013-09-15 08:11:00,
2013-09-15 04:16:00,75.5,73.3,29.97,North,360,0.0,3.0,93,0.00,,---,0.00,VWS V14.01,2013-09-15 08:16:00,
2013-09-15 04:20:00,75.5,73.3,29.97,North,360,0.0,4.0,93,0.00,,---,0.00,VWS V14.01,2013-09-15 08:20:00,
2013-09-15 04:21:00,75.5,73.3,29.97,North,360,1.0,1.0,93,0.00,,---,0.00,VWS V14.01,2013-09-15 08:21:00,
2013-09-15 04:26:00,75.5,73.3,29.97,North,360,2.0,3.0,93,0.00,,---,0.00,VWS V14.01,2013-09-15 08:26:00,
2013-09-15 04:30:00,75.5,73.3,29.97,North,360,1.0,4.0,93,0.00,,---,0.00,VWS V14.01,2013-09-15 08:30:00,
2013-09-15 04:31:00,75.5,73.3,29.97,North,360,2.0,2.0,93,0.00,,---,0.00,VWS V14.01,2013-09-15 08:31:00,
2013-09-15 04:36:00,75.6,73.4,29.96,North,360,3.0,3.0,93,0.00,,---,0.00,VWS V14.01,2013-09-15 08:36:00,
2013-09-15 04:40:00,75.6,73.4,29.96,North,360,0.0,4.0,93,0.00,,---,0.00,VWS V14.01,2013-09-15 08:40:00,
2013-09-15 04:41:00,75.6,73.4,29.96,North,360,1.0,2.0,93,0.00,,---,0.00,VWS V14.01,2013-09-15 08:41:00,
2013-09-15 04:46:00,75.8,73.6,29.96,North,360,1.0,4.0,93,0.00,,---,0.00,VWS V14.01,2013-09-15 08:46:00,
2013-09-15 04:50:00,76.0,73.8,29.96,North,360,0.0,4.0,93,0.00,,---,0.00,VWS V14.01,2013-09-15 08:50:00,
2013-09-15 04:51:00,76.0,73.8,29.96,North,360,1.0,2.0,93,0.00,,---,0.00,VWS V14.01,2013-09-15 08:51:00,
2013-09-15 04:56:00,76.1,73.6,29.96,North,360,1.0,2.0,92,0.00,,---,0.00,VWS V14.01,2013-09-15 08:56:00,
2013-09-15 05:00:00,76.1,73.6,29.96,North,360,0.0,2.0,92,0.00,,---,0.00,VWS V14.01,2013-09-15 09:00:00,
2013-09-15 05:01:00,76.1,73.6,29.96,North,360,0.0,0.0,92,0.00,,---,0.00,VWS V14.01,2013-09-15 09:01:00,
2013-09-15 05:06:00,76.1,73.6,29.96,North,360,0.0,0.0,92,0.00,,---,0.00,VWS V14.01,2013-09-15 09:06:00,
2013-09-15 05:10:00,76.0,73.5,29.97,North,360,0.0,0.0,92,0.00,,---,0.00,VWS V14.01,2013-09-15 09:10:00,
2013-09-15 05:11:00,76.0,73.5,29.96,North,360,0.0,0.0,92,0.00,,---,0.00,VWS V14.01,2013-09-15 09:11:00,
2013-09-15 05:16:00,75.8,73.3,29.96,North,360,0.0,0.0,92,0.00,,---,0.00,VWS V14.01,2013-09-15 09:16:00,
2013-09-15 05:20:00,75.8,73.6,29.97,North,360,0.0,1.0,93,0.00,,---,0.00,VWS V14.01,2013-09-15 09:20:00,
2013-09-15 05:21:00,75.8,73.6,29.96,North,360,0.0,0.0,93,0.00,,---,0.00,VWS V14.01,2013-09-15 09:21:00,
2013-09-15 05:26:00,75.7,73.5,29.97,North,360,2.0,2.0,93,0.00,,---,0.00,VWS V14.01,2013-09-15 09:26:00,
2013-09-15 05:30:00,75.5,73.0,29.97,North,360,1.0,3.0,92,0.00,,---,0.00,VWS V14.01,2013-09-15 09:30:00,
2013-09-15 05:31:00,75.5,73.0,29.97,North,360,1.0,2.0,92,0.00,,---,0.00,VWS V14.01,2013-09-15 09:31:00,
2013-09-15 05:36:00,75.3,73.1,29.96,North,360,0.0,2.0,93,0.00,,---,0.00,VWS V14.01,2013-09-15 09:36:00,
2013-09-15 05:40:00,75.3,73.1,29.96,North,360,0.0,2.0,93,0.00,,---,0.00,VWS V14.01,2013-09-15 09:40:00,
2013-09-15 05:41:00,75.3,73.1,29.96,North,360,0.0,0.0,93,0.00,,---,0.00,VWS V14.01,2013-09-15 09:41:00,
2013-09-15 05:46:00,75.2,73.0,29.96,North,360,0.0,0.0,93,0.00,,---,0.00,VWS V14.01,2013-09-15 09:46:00,
2013-09-15 05:50:00,75.2,73.0,29.96,North,360,0.0,0.0,93,0.00,,---,0.00,VWS V14.01,2013-09-15 09:50:00,
2013-09-15 05:51:00,75.2,73.0,29.97,North,360,0.0,0.0,93,0.00,,---,0.00,VWS V14.01,2013-09-15 09:51:00,
2013-09-15 05:56:00,75.0,72.8,29.96,North,360,0.0,0.0,93,0.00,,---,0.00,VWS V14.01,2013-09-15 09:56:00,
2013-09-15 06:00:00,74.9,72.7,29.96,North,360,0.0,0.0,93,0.00,,---,0.00,VWS V14.01,2013-09-15 10:00:00,
2013-09-15 06:01:00,74.9,72.7,29.96,North,360,0.0,0.0,93,0.00,,---,0.00,VWS V14.01,2013-09-15 10:01:00,
2013-09-15 06:06:00,74.8,72.6,29.96,North,360,0.0,0.0,93,0.00,,---,0.00,VWS V14.01,2013-09-15 10:06:00,
2013-09-15 06:10:00,74.7,72.5,29.96,North,360,0.0,0.0,93,0.00,,---,0.00,VWS V14.01,2013-09-15 10:10:00,
2013-09-15 06:11:00,74.7,72.6,29.96,North,360,0.0,0.0,93,0.00,,---,0.00,VWS V14.01,2013-09-15 10:11:00,
2013-09-15 06:16:00,74.6,72.8,29.96,North,360,0.0,0.0,94,0.00,,---,0.00,VWS V14.01,2013-09-15 10:16:00,
2013-09-15 06:20:00,74.6,72.8,29.96,North,360,0.0,0.0,94,0.00,,---,0.00,VWS V14.01,2013-09-15 10:20:00,
2013-09-15 06:21:00,74.6,72.8,29.96,North,360,0.0,0.0,94,0.00,,---,0.00,VWS V14.01,2013-09-15 10:21:00,
2013-09-15 06:26:00,74.5,72.7,29.97,North,360,0.0,0.0,94,0.00,,---,0.00,VWS V14.01,2013-09-15 10:26:00,
2013-09-15 06:30:00,74.4,72.6,29.96,North,360,0.0,0.0,94,0.00,,---,0.00,VWS V14.01,2013-09-15 10:30:00,
2013-09-15 06:31:00,74.4,72.6,29.97,North,360,0.0,0.0,94,0.00,,---,0.00,VWS V14.01,2013-09-15 10:31:00,
2013-09-15 06:36:00,74.3,72.5,29.97,North,360,0.0,0.0,94,0.00,,---,0.00,VWS V14.01,2013-09-15 10:36:00,
2013-09-15 06:40:00,74.3,72.5,29.97,North,360,0.0,0.0,94,0.00,,---,0.00,VWS V14.01,2013-09-15 10:40:00,
2013-09-15 06:41:00,74.3,72.5,29.97,North,360,0.0,0.0,94,0.00,,---,0.00,VWS V14.01,2013-09-15 10:41:00,
2013-09-15 06:46:00,74.1,72.3,29.97,North,360,0.0,0.0,94,0.00,,---,0.00,VWS V14.01,2013-09-15 10:46:00,
2013-09-15 06:50:00,74.1,72.3,29.97,North,360,0.0,0.0,94,0.00,,---,0.00,VWS V14.01,2013-09-15 10:50:00,
2013-09-15 06:51:00,74.1,72.3,29.97,North,360,0.0,0.0,94,0.00,,---,0.00,VWS V14.01,2013-09-15 10:51:00,
2013-09-15 06:56:00,74.0,72.2,29.97,North,360,0.0,0.0,94,0.00,,---,0.00,VWS V14.01,2013-09-15 10:56:00,
2013-09-15 07:00:00,73.9,72.1,29.97,North,360,0.0,0.0,94,0.00,,---,0.00,VWS V14.01,2013-09-15 11:00:00,
2013-09-15 07:01:00,73.9,72.1,29.97,North,360,0.0,0.0,94,0.00,,---,0.00,VWS V14.01,2013-09-15 11:01:00,
2013-09-15 07:06:00,73.9,72.1,29.97,North,360,0.0,0.0,94,0.00,,---,0.00,VWS V14.01,2013-09-15 11:06:00,
2013-09-15 07:10:00,73.8,72.3,29.97,North,360,0.0,0.0,95,0.00,,---,0.00,VWS V14.01,2013-09-15 11:10:00,
2013-09-15 07:11:00,73.8,72.3,29.97,North,360,0.0,0.0,95,0.00,,---,0.00,VWS V14.01,2013-09-15 11:11:00,
2013-09-15 07:16:00,73.8,72.3,29.97,North,360,0.0,0.0,95,0.00,,---,0.00,VWS V14.01,2013-09-15 11:16:00,
2013-09-15 07:20:00,73.6,72.1,29.97,North,360,0.0,0.0,95,0.00,,---,0.00,VWS V14.01,2013-09-15 11:20:00,
2013-09-15 07:21:00,73.6,72.1,29.97,North,360,0.0,0.0,95,0.00,,---,0.00,VWS V14.01,2013-09-15 11:21:00,
2013-09-15 07:26:00,73.5,71.7,29.97,North,360,0.0,0.0,94,0.00,,---,0.00,VWS V14.01,2013-09-15 11:26:00,
2013-09-15 07:30:00,73.4,71.6,29.97,North,360,0.0,0.0,94,0.00,,---,0.00,VWS V14.01,2013-09-15 11:30:00,
2013-09-15 07:31:00,73.4,71.6,29.97,North,360,0.0,0.0,94,0.00,,---,0.00,VWS V14.01,2013-09-15 11:31:00,
2013-09-15 07:36:00,73.3,71.8,29.97,North,360,0.0,2.0,95,0.00,,---,0.00,VWS V14.01,2013-09-15 11:36:00,
2013-09-15 07:40:00,73.4,71.9,29.97,North,360,0.0,2.0,95,0.00,,---,0.00,VWS V14.01,2013-09-15 11:40:00,
2013-09-15 07:41:00,73.4,71.9,29.97,North,360,0.0,0.0,95,0.00,,---,0.00,VWS V14.01,2013-09-15 11:41:00,
2013-09-15 07:46:00,73.5,72.0,29.97,North,360,0.0,0.0,95,0.00,,---,0.00,VWS V14.01,2013-09-15 11:46:00,
2013-09-15 07:50:00,73.7,72.2,29.98,North,360,0.0,0.0,95,0.00,,---,0.00,VWS V14.01,2013-09-15 11:50:00,
2013-09-15 07:51:00,73.7,72.2,29.98,North,360,0.0,0.0,95,0.00,,---,0.00,VWS V14.01,2013-09-15 11:51:00,
2013-09-15 07:56:00,74.0,72.5,29.98,North,360,0.0,0.0,95,0.00,,---,0.00,VWS V14.01,2013-09-15 11:56:00,
2013-09-15 08:00:00,74.4,72.9,29.98,North,360,0.0,2.0,95,0.00,,---,0.00,VWS V14.01,2013-09-15 12:00:00,
2013-09-15 08:01:00,74.5,73.0,29.99,North,360,0.0,2.0,95,0.00,,---,0.00,VWS V14.01,2013-09-15 12:01:00,
2013-09-15 08:06:00,75.4,74.2,29.99,North,360,2.0,3.0,96,0.00,,---,0.00,VWS V14.01,2013-09-15 12:06:00,
2013-09-15 08:10:00,76.3,75.1,29.99,North,360,7.0,7.0,96,0.00,,---,0.00,VWS V14.01,2013-09-15 12:10:00,
2013-09-15 08:11:00,76.4,75.2,29.99,North,360,7.0,7.0,96,0.00,,---,0.00,VWS V14.01,2013-09-15 12:11:00,
2013-09-15 08:16:00,77.1,75.9,29.99,North,360,4.0,8.0,96,0.00,,---,0.00,VWS V14.01,2013-09-15 12:16:00,
2013-09-15 08:20:00,77.5,76.0,29.99,North,360,5.0,8.0,95,0.00,,---,0.00,VWS V14.01,2013-09-15 12:20:00,
2013-09-15 08:21:00,77.6,76.1,29.99,North,360,2.0,5.0,95,0.00,,---,0.00,VWS V14.01,2013-09-15 12:21:00,
2013-09-15 08:26:00,77.8,75.9,30.00,North,360,3.0,8.0,94,0.00,,---,0.00,VWS V14.01,2013-09-15 12:26:00,
2013-09-15 08:30:00,77.7,75.8,30.00,North,360,3.0,8.0,94,0.00,,---,0.00,VWS V14.01,2013-09-15 12:30:00,
2013-09-15 08:31:00,77.8,75.9,30.00,North,360,3.0,4.0,94,0.00,,---,0.00,VWS V14.01,2013-09-15 12:31:00,
2013-09-15 08:36:00,77.9,75.7,30.00,North,360,2.0,6.0,93,0.00,,---,0.00,VWS V14.01,2013-09-15 12:36:00,
2013-09-15 08:40:00,78.4,76.2,30.00,North,360,2.0,6.0,93,0.00,,---,0.00,VWS V14.01,2013-09-15 12:40:00,
2013-09-15 08:41:00,78.5,76.3,30.00,North,360,3.0,4.0,93,0.00,,---,0.00,VWS V14.01,2013-09-15 12:41:00,
2013-09-15 08:46:00,79.4,77.2,30.00,North,360,3.0,5.0,93,0.00,,---,0.00,VWS V14.01,2013-09-15 12:46:00,
2013-09-15 08:50:00,80.3,77.4,30.00,North,360,3.0,5.0,91,0.00,,---,0.00,VWS V14.01,2013-09-15 12:50:00,
2013-09-15 08:51:00,80.4,77.2,30.01,North,360,3.0,5.0,90,0.00,,---,0.00,VWS V14.01,2013-09-15 12:51:00,
2013-09-15 08:56:00,80.7,77.2,30.01,North,360,2.0,6.0,89,0.00,,---,0.00,VWS V14.01,2013-09-15 12:56:00,
2013-09-15 09:00:00,81.1,77.6,30.01,North,360,5.0,7.0,89,0.00,,---,0.00,VWS V14.01,2013-09-15 13:00:00,
2013-09-15 09:01:00,81.1,77.6,30.01,North,360,5.0,5.0,89,0.00,,---,0.00,VWS V14.01,2013-09-15 13:01:00,
2013-09-15 09:06:00,81.6,77.4,30.00,North,360,4.0,7.0,87,0.00,,---,0.00,VWS V14.01,2013-09-15 13:06:00,
2013-09-15 09:10:00,82.0,78.1,30.01,North,360,4.0,7.0,88,0.00,,---,0.00,VWS V14.01,2013-09-15 13:10:00,
2013-09-15 09:11:00,82.1,78.2,30.01,North,360,5.0,5.0,88,0.00,,---,0.00,VWS V14.01,2013-09-15 13:11:00,
2013-09-15 09:16:00,82.7,78.1,30.01,North,360,6.0,7.0,86,0.00,,---,0.00,VWS V14.01,2013-09-15 13:16:00,
2013-09-15 09:20:00,83.0,78.0,30.01,North,360,6.0,7.0,85,0.00,,---,0.00,VWS V14.01,2013-09-15 13:20:00,
2013-09-15 09:21:00,83.0,77.7,30.01,North,360,6.0,8.0,84,0.00,,---,0.00,VWS V14.01,2013-09-15 13:21:00,
2013-09-15 09:26:00,83.0,77.7,30.01,North,360,4.0,9.0,84,0.00,,---,0.00,VWS V14.01,2013-09-15 13:26:00,
2013-09-15 09:30:00,82.7,77.0,30.01,North,360,6.0,9.0,83,0.00,,---,0.00,VWS V14.01,2013-09-15 13:30:00,
2013-09-15 09:31:00,82.6,76.9,30.01,North,360,5.0,6.0,83,0.00,,---,0.00,VWS V14.01,2013-09-15 13:31:00,
2013-09-15 09:36:00,82.6,77.3,30.01,North,360,6.0,8.0,84,0.00,,---,0.00,VWS V14.01,2013-09-15 13:36:00,
2013-09-15 09:40:00,82.9,77.6,30.01,North,360,4.0,8.0,84,0.00,,---,0.00,VWS V14.01,2013-09-15 13:40:00,
2013-09-15 09:41:00,82.9,77.6,30.01,North,360,2.0,4.0,84,0.00,,---,0.00,VWS V14.01,2013-09-15 13:41:00,
2013-09-15 09:46:00,83.4,78.1,30.01,North,360,1.0,7.0,84,0.00,,---,0.00,VWS V14.01,2013-09-15 13:46:00,
2013-09-15 09:50:00,84.0,78.3,30.01,North,360,9.0,9.0,83,0.00,,---,0.00,VWS V14.01,2013-09-15 13:50:00,
2013-09-15 09:51:00,84.1,78.4,30.01,North,360,7.0,9.0,83,0.00,,---,0.00,VWS V14.01,2013-09-15 13:51:00,
2013-09-15 09:56:00,84.7,78.2,30.01,North,360,3.0,9.0,81,0.00,,---,0.00,VWS V14.01,2013-09-15 13:56:00,
2013-09-15 10:00:00,84.9,78.4,30.02,North,360,6.0,9.0,81,0.00,,---,0.00,VWS V14.01,2013-09-15 14:00:00,
2013-09-15 10:01:00,85.0,78.5,30.02,North,360,4.0,6.0,81,0.00,,---,0.00,VWS V14.01,2013-09-15 14:01:00,
2013-09-15 10:06:00,85.5,78.2,30.02,North,360,5.0,10.0,79,0.00,,---,0.00,VWS V14.01,2013-09-15 14:06:00,
2013-09-15 10:10:00,85.5,78.2,30.02,North,360,7.0,10.0,79,0.00,,---,0.00,VWS V14.01,2013-09-15 14:10:00,
2013-09-15 10:11:00,85.5,78.2,30.02,North,360,5.0,7.0,79,0.00,,---,0.00,VWS V14.01,2013-09-15 14:11:00,
2013-09-15 10:16:00,86.0,77.9,30.02,North,360,3.0,8.0,77,0.00,,---,0.00,VWS V14.01,2013-09-15 14:16:00,
2013-09-15 10:20:00,86.4,77.5,30.03,North,360,5.0,11.0,75,0.00,,---,0.00,VWS V14.01,2013-09-15 14:20:00,
2013-09-15 10:21:00,86.4,78.7,30.03,North,360,3.0,6.0,78,0.00,,---,0.00,VWS V14.01,2013-09-15 14:21:00,
2013-09-15 10:26:00,85.9,77.5,30.03,North,360,7.0,12.0,76,0.00,,---,0.00,VWS V14.01,2013-09-15 14:26:00,
2013-09-15 10:30:00,86.0,78.7,30.03,North,360,5.0,12.0,79,0.00,,---,0.00,VWS V14.01,2013-09-15 14:30:00,
2013-09-15 10:31:00,86.1,77.7,30.03,North,360,7.0,8.0,76,0.00,,---,0.00,VWS V14.01,2013-09-15 14:31:00,
2013-09-15 10:36:00,86.6,78.1,30.03,North,360,4.0,10.0,76,0.00,,---,0.00,VWS V14.01,2013-09-15 14:36:00,
2013-09-15 10:40:00,87.2,78.7,30.03,North,360,8.0,12.0,76,0.00,,---,0.00,VWS V14.01,2013-09-15 14:40:00,
2013-09-15 10:41:00,87.4,78.9,30.03,North,360,8.0,8.0,76,0.00,,---,0.00,VWS V14.01,2013-09-15 14:41:00,
2013-09-15 10:46:00,87.8,78.5,30.03,North,360,8.0,11.0,74,0.00,,---,0.00,VWS V14.01,2013-09-15 14:46:00,
2013-09-15 10:50:00,86.8,77.5,30.03,North,360,7.0,13.0,74,0.00,,---,0.00,VWS V14.01,2013-09-15 14:50:00,
2013-09-15 10:51:00,86.7,77.4,30.03,North,360,3.0,7.0,74,0.00,,---,0.00,VWS V14.01,2013-09-15 14:51:00,
2013-09-15 10:56:00,86.4,78.3,30.03,North,360,9.0,11.0,77,0.00,,---,0.00,VWS V14.01,2013-09-15 14:56:00,
2013-09-15 11:00:00,87.2,79.1,30.03,North,360,8.0,11.0,77,0.00,,---,0.00,VWS V14.01,2013-09-15 15:00:00,
2013-09-15 11:01:00,87.3,78.8,30.03,North,360,6.0,10.0,76,0.00,,---,0.00,VWS V14.01,2013-09-15 15:01:00,
2013-09-15 11:06:00,87.4,77.7,30.03,North,360,9.0,12.0,73,0.00,,---,0.00,VWS V14.01,2013-09-15 15:06:00,
2013-09-15 11:10:00,86.8,77.5,30.03,North,360,4.0,13.0,74,0.00,,---,0.00,VWS V14.01,2013-09-15 15:10:00,
2013-09-15 11:11:00,86.8,77.5,30.03,North,360,4.0,4.0,74,0.00,,---,0.00,VWS V14.01,2013-09-15 15:11:00,
2013-09-15 11:16:00,87.3,78.4,30.03,North,360,4.0,9.0,75,0.00,,---,0.00,VWS V14.01,2013-09-15 15:16:00,
2013-09-15 11:20:00,88.2,77.6,30.03,North,360,9.0,11.0,71,0.00,,---,0.00,VWS V14.01,2013-09-15 15:20:00,
2013-09-15 11:21:00,88.2,77.6,30.03,North,360,7.0,9.0,71,0.00,,---,0.00,VWS V14.01,2013-09-15 15:21:00,
2013-09-15 11:26:00,88.4,76.5,30.03,North,360,8.0,12.0,68,0.00,,---,0.00,VWS V14.01,2013-09-15 15:26:00,
2013-09-15 11:30:00,88.0,77.0,30.03,North,360,5.0,14.0,70,0.00,,---,0.00,VWS V14.01,2013-09-15 15:30:00,
2013-09-15 11:31:00,88.0,77.0,30.03,North,360,8.0,9.0,70,0.00,,---,0.00,VWS V14.01,2013-09-15 15:31:00,
2013-09-15 11:36:00,88.0,76.6,30.03,North,360,11.0,13.0,69,0.00,,---,0.00,VWS V14.01,2013-09-15 15:36:00,
2013-09-15 11:40:00,87.8,76.8,30.03,North,360,3.0,13.0,70,0.00,,---,0.00,VWS V14.01,2013-09-15 15:40:00,
2013-09-15 11:41:00,87.9,77.3,30.03,North,360,4.0,8.0,71,0.00,,---,0.00,VWS V14.01,2013-09-15 15:41:00,
2013-09-15 11:46:00,88.6,77.6,30.03,North,360,6.0,11.0,70,0.00,,---,0.00,VWS V14.01,2013-09-15 15:46:00,
2013-09-15 11:50:00,88.8,76.9,30.03,North,360,5.0,12.0,68,0.00,,---,0.00,VWS V14.01,2013-09-15 15:50:00,
2013-09-15 11:51:00,88.9,77.0,30.03,North,360,7.0,7.0,68,0.00,,---,0.00,VWS V14.01,2013-09-15 15:51:00,
2013-09-15 11:56:00,88.4,77.8,30.03,North,360,5.0,10.0,71,0.00,,---,0.00,VWS V14.01,2013-09-15 15:56:00,
2013-09-15 12:00:00,88.7,77.2,30.02,North,360,5.0,12.0,69,0.00,,---,0.00,VWS V14.01,2013-09-15 16:00:00,
2013-09-15 12:01:00,88.6,76.7,30.03,North,360,5.0,7.0,68,0.00,,---,0.00,VWS V14.01,2013-09-15 16:01:00,
2013-09-15 12:06:00,89.0,77.5,30.02,North,360,5.0,11.0,69,0.00,,---,0.00,VWS V14.01,2013-09-15 16:06:00,
2013-09-15 12:10:00,88.8,76.4,30.02,North,360,6.0,11.0,67,0.00,,---,0.00,VWS V14.01,2013-09-15 16:10:00,
2013-09-15 12:11:00,88.7,76.8,30.02,North,360,8.0,10.0,68,0.00,,---,0.00,VWS V14.01,2013-09-15 16:11:00,
2013-09-15 12:16:00,88.4,76.1,30.02,North,360,8.0,13.0,67,0.00,,---,0.00,VWS V14.01,2013-09-15 16:16:00,
2013-09-15 12:20:00,87.9,76.5,30.02,North,360,6.0,13.0,69,0.00,,---,0.00,VWS V14.01,2013-09-15 16:20:00,
2013-09-15 12:21:00,87.8,76.4,30.02,North,360,7.0,7.0,69,0.00,,---,0.00,VWS V14.01,2013-09-15 16:21:00,
2013-09-15 12:26:00,88.5,77.0,30.02,North,360,6.0,11.0,69,0.00,,---,0.00,VWS V14.01,2013-09-15 16:26:00,
2013-09-15 12:30:00,89.2,75.4,30.02,North,360,9.0,11.0,64,0.00,,---,0.00,VWS V14.01,2013-09-15 16:30:00,
2013-09-15 12:31:00,89.2,75.4,30.02,North,360,6.0,9.0,64,0.00,,---,0.00,VWS V14.01,2013-09-15 16:31:00,
2013-09-15 12:36:00,89.0,75.2,30.02,North,360,9.0,13.0,64,0.00,,---,0.00,VWS V14.01,2013-09-15 16:36:00,
2013-09-15 12:40:00,88.8,74.1,30.02,North,360,5.0,13.0,62,0.00,,---,0.00,VWS V14.01,2013-09-15 16:40:00,
2013-09-15 12:41:00,88.8,74.6,30.02,North,360,7.0,7.0,63,0.00,,---,0.00,VWS V14.01,2013-09-15 16:41:00,
2013-09-15 12:46:00,89.7,74.5,30.01,North,360,7.0,15.0,61,0.00,,---,0.00,VWS V14.01,2013-09-15 16:46:00,
2013-09-15 12:50:00,90.2,74.4,30.01,North,360,7.0,15.0,60,0.00,,---,0.00,VWS V14.01,2013-09-15 16:50:00,
2013-09-15 12:51:00,90.2,74.4,30.01,North,360,7.0,8.0,60,0.00,,---,0.00,VWS V14.01,2013-09-15 16:51:00,
2013-09-15 12:56:00,91.3,76.0,30.01,North,360,11.0,15.0,61,0.00,,---,0.00,VWS V14.01,2013-09-15 16:56:00,
2013-09-15 13:00:00,90.6,76.3,30.01,North,360,6.0,15.0,63,0.00,,---,0.00,VWS V14.01,2013-09-15 17:00:00,
2013-09-15 13:01:00,90.5,76.2,30.01,North,360,5.0,6.0,63,0.00,,---,0.00,VWS V14.01,2013-09-15 17:01:00,
2013-09-15 13:06:00,89.3,75.1,30.01,North,360,3.0,9.0,63,0.00,,---,0.00,VWS V14.01,2013-09-15 17:06:00,
2013-09-15 13:10:00,89.0,75.2,30.01,North,360,7.0,10.0,64,0.00,,---,0.00,VWS V14.01,2013-09-15 17:10:00,
2013-09-15 13:11:00,89.1,74.9,30.01,North,360,6.0,7.0,63,0.00,,---,0.00,VWS V14.01,2013-09-15 17:11:00,
2013-09-15 13:16:00,89.3,76.0,30.01,North,360,7.0,9.0,65,0.00,,---,0.00,VWS V14.01,2013-09-15 17:16:00,
2013-09-15 13:20:00,89.3,75.5,30.00,North,360,2.0,9.0,64,0.00,,---,0.00,VWS V14.01,2013-09-15 17:20:00,
2013-09-15 13:21:00,89.4,75.6,30.00,North,360,6.0,6.0,64,0.00,,---,0.00,VWS V14.01,2013-09-15 17:21:00,
2013-09-15 13:26:00,90.7,75.9,30.00,North,360,5.0,8.0,62,0.00,,---,0.00,VWS V14.01,2013-09-15 17:26:00,
2013-09-15 13:30:00,91.4,74.6,30.00,North,360,8.0,13.0,58,0.00,,---,0.00,VWS V14.01,2013-09-15 17:30:00,
2013-09-15 13:31:00,91.4,74.6,30.00,North,360,6.0,8.0,58,0.00,,---,0.00,VWS V14.01,2013-09-15 17:31:00,
2013-09-15 13:36:00,91.8,74.9,30.00,North,360,6.0,12.0,58,0.00,,---,0.00,VWS V14.01,2013-09-15 17:36:00,
2013-09-15 13:40:00,92.2,75.8,30.00,North,360,7.0,12.0,59,0.00,,---,0.00,VWS V14.01,2013-09-15 17:40:00,
2013-09-15 13:41:00,92.2,75.8,30.00,North,360,10.0,10.0,59,0.00,,---,0.00,VWS V14.01,2013-09-15 17:41:00,
2013-09-15 13:46:00,91.3,75.0,29.99,North,360,4.0,10.0,59,0.00,,---,0.00,VWS V14.01,2013-09-15 17:46:00,
2013-09-15 13:50:00,91.4,75.6,29.99,North,360,6.0,13.0,60,0.00,,---,0.00,VWS V14.01,2013-09-15 17:50:00,
2013-09-15 13:51:00,91.3,74.5,29.99,North,360,5.0,7.0,58,0.00,,---,0.00,VWS V14.01,2013-09-15 17:51:00,
2013-09-15 13:56:00,91.4,75.1,29.99,North,360,6.0,11.0,59,0.00,,---,0.00,VWS V14.01,2013-09-15 17:56:00,
2013-09-15 14:00:00,91.3,76.5,29.98,North,360,5.0,11.0,62,0.00,,---,0.00,VWS V14.01,2013-09-15 18:00:00,
2013-09-15 14:01:00,91.3,76.5,29.99,North,360,10.0,11.0,62,0.00,,---,0.00,VWS V14.01,2013-09-15 18:01:00,
2013-09-15 14:06:00,91.0,76.2,29.98,North,360,8.0,11.0,62,0.00,,---,0.00,VWS V14.01,2013-09-15 18:06:00,
2013-09-15 14:10:00,91.6,76.2,29.98,North,360,7.0,12.0,61,0.00,,---,0.00,VWS V14.01,2013-09-15 18:10:00,
2013-09-15 14:11:00,91.6,76.2,29.99,North,360,7.0,7.0,61,0.00,,---,0.00,VWS V14.01,2013-09-15 18:11:00,
2013-09-15 14:16:00,91.2,76.4,29.99,North,360,8.0,14.0,62,0.00,,---,0.00,VWS V14.01,2013-09-15 18:16:00,
2013-09-15 14:20:00,91.8,77.4,29.99,North,360,9.0,15.0,63,0.00,,---,0.00,VWS V14.01,2013-09-15 18:20:00,
2013-09-15 14:23:00,89.5,73.8,30.00,North,360,20.0,20.0,60,0.00,,---,0.00,VWS V14.01,2013-09-15 18:23:00,
2013-09-15 14:28:00,82.8,72.9,30.00,North,360,20.0,30.0,72,0.00,,---,0.00,VWS V14.01,2013-09-15 18:28:00,
2013-09-15 14:30:00,80.8,72.5,30.01,North,360,19.0,30.0,76,0.00,,---,0.00,VWS V14.01,2013-09-15 18:30:00,
2013-09-15 14:33:00,79.4,71.9,30.01,North,360,13.0,23.0,78,0.00,,---,0.00,VWS V14.01,2013-09-15 18:33:00,
2013-09-15 14:38:00,77.9,72.3,30.01,North,360,15.0,23.0,83,0.00,,---,0.00,VWS V14.01,2013-09-15 18:38:00,
2013-09-15 14:40:00,77.5,72.6,30.01,North,360,12.0,23.0,85,0.00,,---,0.00,VWS V14.01,2013-09-15 18:40:00,
2013-09-15 14:43:00,77.3,72.8,30.01,North,360,16.0,23.0,86,0.00,,---,0.00,VWS V14.01,2013-09-15 18:43:00,
2013-09-15 14:48:00,77.0,72.8,30.02,North,360,14.0,23.0,87,0.00,,---,0.00,VWS V14.01,2013-09-15 18:48:00,
2013-09-15 14:50:00,76.7,72.9,30.02,North,360,14.0,23.0,88,0.00,,---,0.00,VWS V14.01,2013-09-15 18:50:00,
2013-09-15 14:53:00,76.3,72.2,30.02,North,360,15.0,20.0,87,0.00,,---,0.00,VWS V14.01,2013-09-15 18:53:00,
2013-09-15 14:58:00,75.7,72.2,30.02,North,360,6.0,20.0,89,0.00,,---,0.00,VWS V14.01,2013-09-15 18:58:00,
2013-09-15 15:00:00,75.6,72.5,30.02,North,360,5.0,20.0,90,0.00,,---,0.00,VWS V14.01,2013-09-15 19:00:00,
2013-09-15 15:03:00,75.4,72.3,30.02,North,360,3.0,14.0,90,0.00,,---,0.00,VWS V14.01,2013-09-15 19:03:00,
2013-09-15 15:08:00,75.1,72.3,30.01,North,360,8.0,14.0,91,0.01,,---,0.01,VWS V14.01,2013-09-15 19:08:00,
2013-09-15 15:10:00,74.9,72.1,30.01,North,360,6.0,14.0,91,0.01,,---,0.01,VWS V14.01,2013-09-15 19:10:00,
2013-09-15 15:13:00,74.8,72.0,30.02,North,360,5.0,7.0,91,0.01,,---,0.01,VWS V14.01,2013-09-15 19:13:00,
2013-09-15 15:18:00,74.7,72.2,30.03,North,360,4.0,7.0,92,0.01,,---,0.01,VWS V14.01,2013-09-15 19:18:00,
2013-09-15 15:20:00,74.2,70.4,30.02,North,360,5.0,14.0,88,0.01,,---,0.01,VWS V14.01,2013-09-15 19:20:00,
2013-09-15 15:23:00,74.0,70.2,30.01,North,360,4.0,7.0,88,0.02,,---,0.02,VWS V14.01,2013-09-15 19:23:00,
2013-09-15 15:28:00,73.8,70.0,30.01,North,360,2.0,7.0,88,0.02,,---,0.02,VWS V14.01,2013-09-15 19:28:00,
2013-09-15 15:30:00,73.7,70.3,30.02,North,360,6.0,7.0,89,0.02,,---,0.02,VWS V14.01,2013-09-15 19:30:00,
2013-09-15 15:33:00,73.5,70.1,30.02,North,360,6.0,8.0,89,0.02,,---,0.02,VWS V14.01,2013-09-15 19:33:00,
2013-09-15 15:38:00,73.2,70.1,30.01,North,360,2.0,8.0,90,0.03,,---,0.03,VWS V14.01,2013-09-15 19:38:00,
2013-09-15 15:40:00,73.0,69.9,30.01,North,360,2.0,8.0,90,0.03,,---,0.03,VWS V14.01,2013-09-15 19:40:00,
2013-09-15 15:43:00,72.9,69.8,30.01,North,360,2.0,4.0,90,0.03,,---,0.03,VWS V14.01,2013-09-15 19:43:00,
2013-09-15 15:48:00,72.7,69.9,30.01,North,360,0.0,4.0,91,0.03,,---,0.03,VWS V14.01,2013-09-15 19:48:00,
2013-09-15 15:50:00,72.7,69.9,30.00,North,360,0.0,4.0,91,0.03,,---,0.03,VWS V14.01,2013-09-15 19:50:00,
2013-09-15 15:53:00,72.6,69.8,30.00,North,360,0.0,0.0,91,0.03,,---,0.03,VWS V14.01,2013-09-15 19:53:00,
2013-09-15 15:58:00,72.5,69.7,29.98,North,360,0.0,0.0,91,0.03,,---,0.03,VWS V14.01,2013-09-15 19:58:00,
2013-09-15 16:00:00,72.5,70.1,29.98,North,360,0.0,0.0,92,0.03,,---,0.03,VWS V14.01,2013-09-15 20:00:00,
2013-09-15 16:03:00,72.6,70.2,29.99,North,360,2.0,2.0,92,0.03,,---,0.03,VWS V14.01,2013-09-15 20:03:00,
2013-09-15 16:08:00,72.7,70.2,30.00,North,360,0.0,3.0,92,0.03,,---,0.03,VWS V14.01,2013-09-15 20:08:00,
2013-09-15 16:10:00,72.6,70.5,30.01,North,360,0.0,3.0,93,0.03,,---,0.03,VWS V14.01,2013-09-15 20:10:00,
2013-09-15 16:13:00,72.6,70.5,30.02,North,360,1.0,2.0,93,0.02,,---,0.03,VWS V14.01,2013-09-15 20:13:00,
2013-09-15 16:18:00,72.6,70.5,30.03,North,360,5.0,6.0,93,0.02,,---,0.03,VWS V14.01,2013-09-15 20:18:00,
2013-09-15 16:20:00,72.6,70.5,30.03,North,360,4.0,6.0,93,0.02,,---,0.03,VWS V14.01,2013-09-15 20:20:00,
2013-09-15 16:23:00,72.7,70.6,30.03,North,360,5.0,5.0,93,0.03,,---,0.04,VWS V14.01,2013-09-15 20:23:00,
2013-09-15 16:28:00,72.8,71.0,30.04,North,360,12.0,25.0,94,0.03,,---,0.04,VWS V14.01,2013-09-15 20:28:00,
2013-09-15 16:30:00,72.8,70.7,30.04,North,360,4.0,25.0,93,0.03,,---,0.04,VWS V14.01,2013-09-15 20:30:00,
2013-09-15 16:33:00,72.8,70.7,30.04,North,360,8.0,13.0,93,0.02,,---,0.04,VWS V14.01,2013-09-15 20:33:00,
2013-09-15 16:38:00,72.5,70.1,30.03,North,360,6.0,13.0,92,0.02,,---,0.04,VWS V14.01,2013-09-15 20:38:00,
2013-09-15 16:40:00,72.4,69.9,30.03,North,360,6.0,13.0,92,0.02,,---,0.04,VWS V14.01,2013-09-15 20:40:00,
2013-09-15 16:43:00,72.3,69.8,30.03,North,360,5.0,12.0,92,0.01,,---,0.04,VWS V14.01,2013-09-15 20:43:00,
2013-09-15 16:48:00,72.1,70.0,30.03,North,360,9.0,13.0,93,0.01,,---,0.04,VWS V14.01,2013-09-15 20:48:00,
2013-09-15 16:50:00,71.9,69.8,30.03,North,360,2.0,13.0,93,0.01,,---,0.04,VWS V14.01,2013-09-15 20:50:00,
2013-09-15 16:53:00,71.9,69.8,30.03,North,360,4.0,4.0,93,0.01,,---,0.04,VWS V14.01,2013-09-15 20:53:00,
2013-09-15 16:58:00,71.9,69.8,30.03,North,360,4.0,6.0,93,0.01,,---,0.04,VWS V14.01,2013-09-15 20:58:00,
2013-09-15 17:00:00,71.8,69.7,30.03,North,360,2.0,6.0,93,0.01,,---,0.04,VWS V14.01,2013-09-15 21:00:00,
2013-09-15 17:03:00,71.8,69.7,30.02,North,360,3.0,6.0,93,0.01,,---,0.04,VWS V14.01,2013-09-15 21:03:00,
2013-09-15 17:08:00,71.7,69.6,30.01,North,360,5.0,6.0,93,0.01,,---,0.04,VWS V14.01,2013-09-15 21:08:00,
2013-09-15 17:10:00,71.7,69.9,30.01,North,360,2.0,6.0,94,0.01,,---,0.04,VWS V14.01,2013-09-15 21:10:00,
2013-09-15 17:13:00,71.7,69.9,30.01,North,360,1.0,2.0,94,0.01,,---,0.04,VWS V14.01,2013-09-15 21:13:00,
2013-09-15 17:18:00,71.7,69.9,30.01,North,360,0.0,2.0,94,0.01,,---,0.04,VWS V14.01,2013-09-15 21:18:00,
2013-09-15 17:20:00,71.6,69.8,30.01,North,360,0.0,2.0,94,0.01,,---,0.04,VWS V14.01,2013-09-15 21:20:00,
2013-09-15 17:23:00,71.7,69.9,30.01,North,360,0.0,2.0,94,0.01,,---,0.04,VWS V14.01,2013-09-15 21:23:00,
2013-09-15 17:28:00,71.7,69.9,30.01,North,360,0.0,2.0,94,0.01,,---,0.04,VWS V14.01,2013-09-15 21:28:00,
2013-09-15 17:30:00,71.7,69.9,30.01,North,360,0.0,2.0,94,0.01,,---,0.04,VWS V14.01,2013-09-15 21:30:00,
2013-09-15 17:32:00,71.7,69.9,30.01,North,360,0.0,0.0,94,0.00,,---,0.04,VWS V14.01,2013-09-15 21:32:00,
2013-09-15 17:37:00,71.7,69.9,30.01,North,360,0.0,0.0,94,0.00,,---,0.04,VWS V14.01,2013-09-15 21:37:00,
2013-09-15 17:40:00,71.7,69.9,30.01,North,360,3.0,3.0,94,0.00,,---,0.04,VWS V14.01,2013-09-15 21:40:00,
2013-09-15 17:42:00,71.8,70.0,30.01,North,360,1.0,3.0,94,0.00,,---,0.04,VWS V14.01,2013-09-15 21:42:00,
2013-09-15 17:47:00,71.8,70.0,30.01,North,360,2.0,5.0,94,0.00,,---,0.04,VWS V14.01,2013-09-15 21:47:00,
2013-09-15 17:50:00,71.8,70.0,30.01,North,360,2.0,5.0,94,0.00,,---,0.04,VWS V14.01,2013-09-15 21:50:00,
2013-09-15 17:52:00,71.9,70.1,30.01,North,360,5.0,5.0,94,0.00,,---,0.04,VWS V14.01,2013-09-15 21:52:00,
2013-09-15 17:57:00,71.9,70.1,30.01,North,360,2.0,5.0,94,0.00,,---,0.04,VWS V14.01,2013-09-15 21:57:00,
2013-09-15 18:00:00,71.9,70.1,30.01,North,360,0.0,5.0,94,0.01,,---,0.05,VWS V14.01,2013-09-15 22:00:00,
2013-09-15 18:02:00,71.9,70.1,30.00,North,360,2.0,2.0,94,0.01,,---,0.05,VWS V14.01,2013-09-15 22:02:00,
2013-09-15 18:07:00,71.9,70.4,30.00,North,360,1.0,3.0,95,0.01,,---,0.05,VWS V14.01,2013-09-15 22:07:00,
2013-09-15 18:10:00,71.9,70.4,30.01,North,360,0.0,3.0,95,0.01,,---,0.05,VWS V14.01,2013-09-15 22:10:00,
2013-09-15 18:12:00,71.9,70.4,30.01,North,360,0.0,0.0,95,0.01,,---,0.05,VWS V14.01,2013-09-15 22:12:00,
2013-09-15 18:17:00,72.0,70.5,30.01,North,360,2.0,3.0,95,0.01,,---,0.05,VWS V14.01,2013-09-15 22:17:00,
2013-09-15 18:20:00,72.1,70.6,30.01,North,360,4.0,4.0,95,0.01,,---,0.05,VWS V14.01,2013-09-15 22:20:00,
2013-09-15 18:22:00,72.2,70.7,30.02,North,360,4.0,5.0,95,0.01,,---,0.05,VWS V14.01,2013-09-15 22:22:00,
2013-09-15 18:27:00,72.2,70.7,30.02,North,360,5.0,6.0,95,0.01,,---,0.05,VWS V14.01,2013-09-15 22:27:00,
2013-09-15 18:30:00,72.3,70.8,30.02,North,360,3.0,6.0,95,0.01,,---,0.05,VWS V14.01,2013-09-15 22:30:00,
2013-09-15 18:32:00,72.2,70.7,30.02,North,360,2.0,3.0,95,0.02,,---,0.06,VWS V14.01,2013-09-15 22:32:00,
2013-09-15 18:37:00,72.3,70.8,30.02,North,360,2.0,7.0,95,0.02,,---,0.06,VWS V14.01,2013-09-15 22:37:00,
2013-09-15 18:40:00,72.3,70.8,30.01,North,360,2.0,7.0,95,0.02,,---,0.06,VWS V14.01,2013-09-15 22:40:00,
2013-09-15 18:42:00,72.4,70.9,30.02,North,360,3.0,5.0,95,0.02,,---,0.06,VWS V14.01,2013-09-15 22:42:00,
2013-09-15 18:47:00,72.6,71.1,30.02,North,360,4.0,6.0,95,0.02,,---,0.06,VWS V14.01,2013-09-15 22:47:00,
2013-09-15 18:50:00,72.6,71.1,30.02,North,360,2.0,6.0,95,0.03,,---,0.07,VWS V14.01,2013-09-15 22:50:00,
2013-09-15 18:52:00,72.7,71.2,30.01,North,360,1.0,3.0,95,0.03,,---,0.07,VWS V14.01,2013-09-15 22:52:00,
2013-09-15 18:57:00,72.8,71.3,30.01,North,360,0.0,4.0,95,0.04,,---,0.08,VWS V14.01,2013-09-15 22:57:00,
2013-09-15 19:00:00,72.8,71.3,30.01,North,360,0.0,4.0,95,0.04,,---,0.08,VWS V14.01,2013-09-15 23:00:00,
2013-09-15 19:02:00,72.8,71.3,30.01,North,360,0.0,3.0,95,0.03,,---,0.08,VWS V14.01,2013-09-15 23:02:00,
2013-09-15 19:07:00,72.9,71.4,30.01,North,360,0.0,3.0,95,0.03,,---,0.08,VWS V14.01,2013-09-15 23:07:00,
2013-09-15 19:10:00,73.0,71.5,30.00,North,360,0.0,3.0,95,0.03,,---,0.08,VWS V14.01,2013-09-15 23:10:00,
2013-09-15 19:12:00,73.0,71.5,30.00,North,360,2.0,2.0,95,0.03,,---,0.08,VWS V14.01,2013-09-15 23:12:00,
2013-09-15 19:17:00,73.2,71.7,30.01,North,360,1.0,3.0,95,0.04,,---,0.09,VWS V14.01,2013-09-15 23:17:00,
2013-09-15 19:20:00,73.3,71.8,30.01,North,360,5.0,5.0,95,0.04,,---,0.09,VWS V14.01,2013-09-15 23:20:00,
2013-09-15 19:22:00,73.2,71.7,30.02,North,360,3.0,5.0,95,0.04,,---,0.09,VWS V14.01,2013-09-15 23:22:00,
2013-09-15 19:27:00,73.2,71.7,30.02,North,360,3.0,5.0,95,0.04,,---,0.09,VWS V14.01,2013-09-15 23:27:00,
2013-09-15 19:30:00,73.2,71.7,30.02,North,360,0.0,5.0,95,0.04,,---,0.09,VWS V14.01,2013-09-15 23:30:00,
2013-09-15 19:32:00,73.3,71.8,30.03,North,360,0.0,1.0,95,0.04,,---,0.09,VWS V14.01,2013-09-15 23:32:00,
2013-09-15 19:37:00,73.3,71.8,30.03,North,360,1.0,3.0,95,0.04,,---,0.09,VWS V14.01,2013-09-15 23:37:00,
2013-09-15 19:40:00,73.4,71.9,30.03,North,360,0.0,3.0,95,0.04,,---,0.09,VWS V14.01,2013-09-15 23:40:00,
2013-09-15 19:42:00,73.4,71.9,30.02,North,360,0.0,0.0,95,0.03,,---,0.09,VWS V14.01,2013-09-15 23:42:00,
2013-09-15 19:47:00,73.5,72.0,30.03,North,360,2.0,2.0,95,0.03,,---,0.09,VWS V14.01,2013-09-15 23:47:00,
2013-09-15 19:50:00,73.5,72.0,30.02,North,360,0.0,3.0,95,0.03,,---,0.09,VWS V14.01,2013-09-15 23:50:00,
2013-09-15 19:52:00,73.5,72.0,30.02,North,360,0.0,2.0,95,0.02,,---,0.09,VWS V14.01,2013-09-15 23:52:00,
2013-09-15 19:57:00,73.4,71.9,30.03,North,360,0.0,2.0,95,0.02,,---,0.09,VWS V14.01,2013-09-15 23:57:00,
2013-09-15 20:00:00,73.4,71.9,30.03,North,360,0.0,2.0,95,0.02,,---,0.09,VWS V14.01,2013-09-16 00:00:00,
2013-09-15 20:02:00,73.3,71.8,30.03,North,360,0.0,1.0,95,0.01,,---,0.09,VWS V14.01,2013-09-16 00:02:00,
2013-09-15 20:07:00,73.3,71.8,30.03,North,360,0.0,1.0,95,0.01,,---,0.09,VWS V14.01,2013-09-16 00:07:00,
2013-09-15 20:10:00,73.3,71.8,30.03,North,360,0.0,1.0,95,0.01,,---,0.09,VWS V14.01,2013-09-16 00:10:00,
2013-09-15 20:12:00,73.3,71.8,30.03,North,360,0.0,0.0,95,0.01,,---,0.09,VWS V14.01,2013-09-16 00:12:00,
2013-09-15 20:17:00,73.2,71.7,30.03,North,360,0.0,0.0,95,0.01,,---,0.09,VWS V14.01,2013-09-16 00:17:00,
2013-09-15 20:20:00,73.3,71.8,30.03,North,360,0.0,0.0,95,0.01,,---,0.09,VWS V14.01,2013-09-16 00:20:00,
2013-09-15 20:22:00,73.3,71.8,30.03,North,360,0.0,0.0,95,0.00,,---,0.09,VWS V14.01,2013-09-16 00:22:00,
2013-09-15 20:27:00,73.3,71.8,30.04,North,360,0.0,0.0,95,0.00,,---,0.09,VWS V14.01,2013-09-16 00:27:00,
2013-09-15 20:30:00,73.3,71.8,30.04,North,360,0.0,0.0,95,0.00,,---,0.09,VWS V14.01,2013-09-16 00:30:00,
2013-09-15 20:32:00,73.3,71.8,30.04,North,360,3.0,3.0,95,0.00,,---,0.09,VWS V14.01,2013-09-16 00:32:00,
2013-09-15 20:37:00,73.1,71.6,30.04,North,360,4.0,4.0,95,0.00,,---,0.09,VWS V14.01,2013-09-16 00:37:00,
2013-09-15 20:40:00,73.0,71.5,30.05,North,360,2.0,4.0,95,0.00,,---,0.09,VWS V14.01,2013-09-16 00:40:00,
2013-09-15 20:42:00,73.0,71.8,30.05,North,360,1.0,3.0,96,0.00,,---,0.09,VWS V14.01,2013-09-16 00:42:00,
2013-09-15 20:47:00,73.0,71.8,30.06,North,360,1.0,6.0,96,0.00,,---,0.09,VWS V14.01,2013-09-16 00:47:00,
2013-09-15 20:50:00,73.0,71.8,30.06,North,360,1.0,6.0,96,0.00,,---,0.09,VWS V14.01,2013-09-16 00:50:00,
2013-09-15 20:52:00,73.0,71.8,30.06,North,360,0.0,2.0,96,0.00,,---,0.09,VWS V14.01,2013-09-16 00:52:00,
2013-09-15 20:57:00,73.0,71.8,30.06,North,360,0.0,2.0,96,0.00,,---,0.09,VWS V14.01,2013-09-16 00:57:00,
2013-09-15 21:00:00,73.1,71.9,30.06,North,360,0.0,2.0,96,0.00,,---,0.09,VWS V14.01,2013-09-16 01:00:00,
2013-09-15 21:02:00,73.0,71.8,30.06,North,360,2.0,4.0,96,0.00,,---,0.09,VWS V14.01,2013-09-16 01:02:00,
2013-09-15 21:07:00,73.0,71.8,30.06,North,360,1.0,4.0,96,0.00,,---,0.09,VWS V14.01,2013-09-16 01:07:00,
2013-09-15 21:10:00,73.0,71.8,30.06,North,360,0.0,4.0,96,0.00,,---,0.09,VWS V14.01,2013-09-16 01:10:00,
2013-09-15 21:12:00,72.9,71.7,30.06,North,360,0.0,2.0,96,0.00,,---,0.09,VWS V14.01,2013-09-16 01:12:00,
2013-09-15 21:17:00,72.9,71.7,30.07,North,360,0.0,2.0,96,0.00,,---,0.09,VWS V14.01,2013-09-16 01:17:00,
2013-09-15 21:20:00,73.0,71.8,30.07,North,360,1.0,2.0,96,0.00,,---,0.09,VWS V14.01,2013-09-16 01:20:00,
2013-09-15 21:22:00,73.1,71.9,30.07,North,360,1.0,2.0,96,0.00,,---,0.09,VWS V14.01,2013-09-16 01:22:00,
2013-09-15 21:27:00,73.1,71.9,30.07,North,360,0.0,2.0,96,0.00,,---,0.09,VWS V14.01,2013-09-16 01:27:00,
2013-09-15 21:30:00,73.2,72.0,30.07,North,360,0.0,2.0,96,0.00,,---,0.09,VWS V14.01,2013-09-16 01:30:00,
2013-09-15 21:32:00,73.2,72.0,30.07,North,360,0.0,0.0,96,0.00,,---,0.09,VWS V14.01,2013-09-16 01:32:00,
2013-09-15 21:37:00,73.3,72.1,30.07,North,360,0.0,0.0,96,0.00,,---,0.09,VWS V14.01,2013-09-16 01:37:00,
2013-09-15 21:40:00,73.4,72.2,30.07,North,360,0.0,0.0,96,0.00,,---,0.09,VWS V14.01,2013-09-16 01:40:00,
2013-09-15 21:42:00,73.4,72.2,30.07,North,360,0.0,0.0,96,0.00,,---,0.09,VWS V14.01,2013-09-16 01:42:00,
2013-09-15 21:47:00,73.5,72.3,30.07,North,360,0.0,0.0,96,0.00,,---,0.09,VWS V14.01,2013-09-16 01:47:00,
2013-09-15 21:50:00,73.4,72.2,30.07,North,360,0.0,0.0,96,0.00,,---,0.09,VWS V14.01,2013-09-16 01:50:00,
2013-09-15 21:52:00,73.4,72.2,30.07,North,360,0.0,0.0,96,0.00,,---,0.09,VWS V14.01,2013-09-16 01:52:00,
2013-09-15 21:57:00,73.4,72.2,30.06,North,360,0.0,0.0,96,0.00,,---,0.09,VWS V14.01,2013-09-16 01:57:00,
2013-09-15 22:00:00,73.3,72.1,30.06,North,360,0.0,0.0,96,0.00,,---,0.09,VWS V14.01,2013-09-16 02:00:00,
2013-09-15 22:02:00,73.3,72.1,30.06,North,360,0.0,0.0,96,0.00,,---,0.09,VWS V14.01,2013-09-16 02:02:00,
2013-09-15 22:07:00,73.2,72.0,30.06,North,360,0.0,0.0,96,0.00,,---,0.09,VWS V14.01,2013-09-16 02:07:00,
2013-09-15 22:10:00,73.2,72.0,30.06,North,360,0.0,0.0,96,0.00,,---,0.09,VWS V14.01,2013-09-16 02:10:00,
2013-09-15 22:12:00,73.2,72.0,30.06,North,360,0.0,0.0,96,0.00,,---,0.09,VWS V14.01,2013-09-16 02:12:00,
2013-09-15 22:17:00,73.2,72.0,30.06,North,360,0.0,0.0,96,0.00,,---,0.09,VWS V14.01,2013-09-16 02:17:00,
2013-09-15 22:20:00,73.3,72.1,30.06,North,360,0.0,0.0,96,0.00,,---,0.09,VWS V14.01,2013-09-16 02:20:00,
2013-09-15 22:22:00,73.2,72.0,30.05,North,360,0.0,0.0,96,0.00,,---,0.09,VWS V14.01,2013-09-16 02:22:00,
2013-09-15 22:27:00,73.2,72.0,30.05,North,360,0.0,0.0,96,0.00,,---,0.09,VWS V14.01,2013-09-16 02:27:00,
2013-09-15 22:30:00,73.1,71.9,30.05,North,360,0.0,0.0,96,0.00,,---,0.09,VWS V14.01,2013-09-16 02:30:00,
2013-09-15 22:32:00,73.1,71.9,30.05,North,360,0.0,0.0,96,0.00,,---,0.09,VWS V14.01,2013-09-16 02:32:00,
2013-09-15 22:37:00,73.3,72.1,30.05,North,360,1.0,2.0,96,0.00,,---,0.09,VWS V14.01,2013-09-16 02:37:00,
2013-09-15 22:40:00,73.4,72.2,30.05,North,360,0.0,2.0,96,0.00,,---,0.09,VWS V14.01,2013-09-16 02:40:00,
2013-09-15 22:42:00,73.5,72.3,30.05,North,360,0.0,0.0,96,0.00,,---,0.09,VWS V14.01,2013-09-16 02:42:00,
2013-09-15 22:47:00,73.5,72.3,30.05,North,360,0.0,0.0,96,0.00,,---,0.09,VWS V14.01,2013-09-16 02:47:00,
2013-09-15 22:50:00,73.6,72.4,30.04,North,360,2.0,2.0,96,0.00,,---,0.09,VWS V14.01,2013-09-16 02:50:00,
2013-09-15 22:52:00,73.6,72.4,30.04,North,360,1.0,3.0,96,0.00,,---,0.09,VWS V14.01,2013-09-16 02:52:00,
2013-09-15 22:57:00,73.5,72.3,30.04,North,360,0.0,3.0,96,0.00,,---,0.09,VWS V14.01,2013-09-16 02:57:00,
2013-09-15 23:00:00,73.5,72.3,30.04,North,360,0.0,3.0,96,0.00,,---,0.09,VWS V14.01,2013-09-16 03:00:00,
2013-09-15 23:02:00,73.4,72.2,30.04,North,360,0.0,0.0,96,0.00,,---,0.09,VWS V14.01,2013-09-16 03:02:00,
2013-09-15 23:07:00,73.4,72.2,30.04,North,360,0.0,0.0,96,0.00,,---,0.09,VWS V14.01,2013-09-16 03:07:00,
2013-09-15 23:10:00,73.4,72.2,30.04,North,360,0.0,0.0,96,0.00,,---,0.09,VWS V14.01,2013-09-16 03:10:00,
2013-09-15 23:12:00,73.3,72.1,30.03,North,360,0.0,0.0,96,0.00,,---,0.09,VWS V14.01,2013-09-16 03:12:00,
2013-09-15 23:17:00,73.2,72.0,30.03,North,360,0.0,0.0,96,0.00,,---,0.09,VWS V14.01,2013-09-16 03:17:00,
2013-09-15 23:20:00,73.2,72.0,30.03,North,360,0.0,0.0,96,0.00,,---,0.09,VWS V14.01,2013-09-16 03:20:00,
2013-09-15 23:22:00,73.2,72.0,30.03,North,360,0.0,0.0,96,0.00,,---,0.09,VWS V14.01,2013-09-16 03:22:00,
2013-09-15 23:27:00,73.0,71.8,30.03,North,360,0.0,0.0,96,0.00,,---,0.09,VWS V14.01,2013-09-16 03:27:00,
2013-09-15 23:30:00,73.0,71.8,30.03,North,360,0.0,2.0,96,0.00,,---,0.09,VWS V14.01,2013-09-16 03:30:00,
2013-09-15 23:32:00,72.9,71.7,30.03,North,360,0.0,0.0,96,0.00,,---,0.09,VWS V14.01,2013-09-16 03:32:00,
2013-09-15 23:37:00,72.8,71.6,30.03,North,360,0.0,0.0,96,0.00,,---,0.09,VWS V14.01,2013-09-16 03:37:00,
2013-09-15 23:40:00,72.7,71.5,30.03,North,360,0.0,0.0,96,0.00,,---,0.09,VWS V14.01,2013-09-16 03:40:00,
2013-09-15 23:42:00,72.6,71.4,30.03,North,360,0.0,0.0,96,0.00,,---,0.09,VWS V14.01,2013-09-16 03:42:00,
2013-09-15 23:47:00,72.6,71.4,30.03,North,360,0.0,0.0,96,0.00,,---,0.09,VWS V14.01,2013-09-16 03:47:00,
2013-09-15 23:50:00,72.5,71.3,30.03,North,360,0.0,0.0,96,0.00,,---,0.09,VWS V14.01,2013-09-16 03:50:00,
2013-09-15 23:52:00,72.5,71.3,30.03,North,360,0.0,0.0,96,0.00,,---,0.09,VWS V14.01,2013-09-16 03:52:00,
2013-09-15 23:57:00,72.4,71.2,30.03,North,360,0.0,0.0,96,0.00,,---,0.09,VWS V14.01,2013-09-16 03:57:00,